STARLINK-31932, 59929

Orbit data source: Space-Track

STARLINK-31932, 59929 is a payload satellite owned by SpaceX/Seattle (US) in LEO that was launched on Sat, 01 Jun 2024 UTC via an FALCON 9 launch vehicle from the Air Force Eastern Test Range (AFETR). Payload-class satellites include a variety of spacecraft equipped with specific instruments for various scientific and technological missions. These include communications satellites like Starlink; space stations such as the ISS; scientific satellites like the Hubble; Earth observation satellites from companies like Planet Labs, Umbra, and HawkEye 360; GPS; miniature CubeSats for education and research; and military/defense satellites.

Loading next visibility...
Identifier
59929, 2024-106H
Orbit
LEO
Last TLE update
1 day ago
Origin
Manufacturer
SpaceX/Seattle
Mission
Operational spacecraft
Bus & Motor
STARLINK V2M, Unknown motor
Mass
730 kg wet, ~700 kg dry
Launch date (UTC)
2024-06-01 (11 months ago)
Launch vehicle
FALCON 9
Launch site
Air Force Eastern Test Range (AFETR)
Object type
Payload
Rocket body
Debris
Shape & HBR
Unknown
Radar Cross Section
Large (>1 m²)

Expand to show TLE details & history

TLE from 1 day ago
0 STARLINK-31932
1 59929U 24106H   25132.55256611 -.00022096  00000-0 -79544-3 0  9994
2 59929  43.0000 229.9722 0001526 257.7952 102.2729 15.27595380 54509
Epoch: 2025-05-12T13:15Z
Definitive object data (Epoch: 2025-05-12T13:15:41.711Z)
Latitude
-0.00002°
Longitude
160.48437°
Altitude
483.001 km
Speed
7.626 km/s
True Right ascension
15h 19m 53s
True Declination
0° 00' 00"
Sunlit
Object was in full shadow at TLE epoch
Visualization TLE readout
Latitude
25.25042°
Longitude
-174.89942°
Altitude
483.759 km
Speed
7.627 km/s
Apparent Right ascension
13h 51m 59s
Apparent Declination
-10° 38' 16"
Sunlit
Object is in full shadow
Visualization observer readout
Local Sidereal Time
21:23:47
Azimuth
276.573° WNW
Elevation
-24.352°
Doppler factor
1
Orbital elements
Apogee altitude
485.996 km
Perigee altitude
483.901 km
Semi-major axis
6,863.085 km
Eccentricity
0.0001526
Inclination
43°
RAAN
229.9722°
Arg. of periapsis
257.7952°
True anomaly
102.28999°
Mean anomaly
102.2729°
Eccentric anomaly
102.28144°
Mean motion
3.81737 °/min
BSTAR
-0.00079544
Orbital period
94.31 mins
Loading maneuver chart data...
Loading SW <> Apogee altitude chart data...
Loading historical data...
Loading historical data...
Loading historical data...
Loading historical data...
Loading historical data...
Loading historical data...
Loading historical data...

STARLINK-31932 Visibility forecast

Observer location: undefined°, undefined°

Span
Click to sort rows by Start time (UTC) header in descending order
Start Az.
Max El. time (UTC)
Max El. Az.
Max El.
End time (UTC)
End Az.
7 mins2025-05-13 13:10:06.485Z288.256° WNW2025-05-13 13:14:06.485Z38.212° NE38.278°2025-05-13 13:17:06.485Z86.33° E
6 mins2025-05-13 14:50:06.485Z279.514° WNW2025-05-13 14:53:06.485Z172.535° S38.712°2025-05-13 14:56:06.485Z126.319° SE
5 mins2025-05-14 09:26:06.485Z210.106° SW2025-05-14 09:28:06.485Z138.911° SSE34.519°2025-05-14 09:31:06.485Z81.14° E
6 mins2025-05-14 11:04:06.485Z270.949° WNW2025-05-14 11:07:06.485Z20.423° NNE40.378°2025-05-14 11:10:06.485Z70.09° E
5 mins2025-05-14 12:44:06.485Z298.353° NW2025-05-14 12:46:06.485Z16.956° NNE39.501°2025-05-14 12:49:06.485Z84.651° E
|